Weather History for KBVN - December, 2013

Change the Weather History Date:

Thursday, December 5, 2013

  Actual Average (KOFK) Record (KOFK)
Temperature  
Mean Temperature 6 °F 27 °F  
Max Temperature 13 °F 37 °F 65 °F (1988)
Min Temperature 0 °F 17 °F -7 °F (2005)
Degree Days  
Heating Degree Days 58 38  
Month to date heating degree days 188  
Since 1 July heating degree days 1633  
Cooling Degree Days 0 0  
Month to date cooling degree days 0  
Year to date cooling degree days 915  
Moisture  
Dew Point -6 °F    
Average Humidity 57    
Maximum Humidity 69    
Minimum Humidity 39    
Precipitation  
Precipitation 0.03 in 0.03 in 0.30 in (1936)
Month to date precipitation 0.15  
Year to date precipitation 26.81  
Snow  
Snow 0.00 in 0.20 in - ()
Month to date snowfall 1.0  
Since 1 July snowfall 5.9  
Snow Depth -    
Sea Level Pressure  
Sea Level Pressure 30.25 in    
Wind  
Wind Speed 17 mph (NW)    
Max Wind Speed 23 mph    
Max Gust Speed 31 mph    
Visibility 10 miles    
Events      
T = Trace of Precipitation, MM = Missing Value Source: NWS Daily Summary

Daily Weather History Graph

Daily Weather History Graph

Search for Another Location

Airport or City:

Trip Planner

Search our weather history database for the weather conditions in past years. The results will help you decide how hot, cold, wet, or windy it might be!

Date:

Astronomy

Dec. 05, 2013 Rise Set
Actual Time 7:44 AM CST 5:01 PM CST
Civil Twilight 7:12 AM CST 5:32 PM CST
Nautical Twilight 6:38 AM CST 6:07 PM CST
Astronomical Twilight 6:04 AM CST 6:41 PM CST
Moon 10:04 AM CST (12/5) 8:25 PM CST (12/5)
Length of Visible Light 10h 19m
Length of Day
9h 17m
Waxing Crescent, 11% of the Moon is Illuminated
Dec 5
Waxing Crescent
Dec 9
First Quarter
Dec 17
Full
Dec 25
Last Quarter
Jan 1
New

Hourly Weather History & Observations

Time (CST) Temp. Windchill Dew Point Humidity Pressure Visibility Wind Dir Wind Speed Gust Speed Precip Events Conditions
12:15 AM 8.2 °F -12.4 °F -1.5 °F 65% 30.09 in 10.0 mi NW 23.0 mph 27.6 mph N/A   Scattered Clouds
12:35 AM 7.7 °F -12.2 °F -2.2 °F 64% 30.09 in 10.0 mi NW 20.7 mph 29.9 mph N/A   Mostly Cloudy
12:55 AM 7.2 °F -10.8 °F -2.2 °F 66% 30.10 in 10.0 mi NW 16.1 mph 24.2 mph N/A   Mostly Cloudy
1:15 AM 6.8 °F -12.4 °F -2.4 °F 66% 30.10 in 10.0 mi NW 18.4 mph 25.3 mph N/A   Scattered Clouds
1:35 AM 6.8 °F -11.3 °F -2.4 °F 66% 30.11 in 10.0 mi NW 16.1 mph 21.9 mph N/A   Clear
1:55 AM 6.6 °F -12.6 °F -2.4 °F 67% 30.12 in 10.0 mi NW 18.4 mph 23.0 mph N/A   Scattered Clouds
2:15 AM 6.6 °F -13.1 °F -2.6 °F 66% 30.13 in 10.0 mi NW 19.6 mph 26.5 mph N/A   Scattered Clouds
2:35 AM 6.4 °F -11.7 °F -2.7 °F 66% 30.14 in 10.0 mi NW 16.1 mph 23.0 mph N/A   Scattered Clouds
2:55 AM 6.4 °F -12.3 °F -3.1 °F 65% 30.14 in 10.0 mi NW 17.3 mph 25.3 mph N/A   Scattered Clouds
3:15 AM 6.3 °F -13.6 °F -3.5 °F 64% 30.14 in 10.0 mi NW 19.6 mph 31.1 mph N/A   Scattered Clouds
3:35 AM 5.9 °F -13.5 °F -3.6 °F 65% 30.15 in 10.0 mi NW 18.4 mph 25.3 mph N/A   Scattered Clouds
3:55 AM 5.9 °F -12.4 °F -4.0 °F 64% 30.16 in 10.0 mi NW 16.1 mph 29.9 mph N/A   Scattered Clouds
4:15 AM 5.7 °F -13.2 °F -4.2 °F 64% 30.17 in 10.0 mi NW 17.3 mph 26.5 mph N/A   Scattered Clouds
4:35 AM 5.4 °F -15.3 °F -4.5 °F 64% 30.17 in 10.0 mi NW 20.7 mph 26.5 mph N/A   Clear
4:55 AM 5.0 °F -15.7 °F -4.9 °F 64% 30.17 in 10.0 mi NW 20.7 mph 28.8 mph N/A   Scattered Clouds
5:15 AM 5.0 °F -13.6 °F -5.1 °F 63% 30.19 in 10.0 mi NW 16.1 mph 21.9 mph N/A   Scattered Clouds
5:35 AM 4.6 °F -14.0 °F -5.3 °F 64% 30.19 in 10.0 mi NW 16.1 mph 21.9 mph N/A   Scattered Clouds
5:55 AM 4.5 °F -15.4 °F -5.4 °F 64% 30.19 in 10.0 mi NW 18.4 mph 23.0 mph N/A   Scattered Clouds
6:15 AM 4.1 °F -15.3 °F -5.8 °F 64% 30.20 in 10.0 mi NW 17.3 mph 21.9 mph N/A   Scattered Clouds
6:35 AM 4.1 °F -15.9 °F -5.8 °F 64% 30.20 in 10.0 mi NW 18.4 mph 24.2 mph N/A   Clear
6:55 AM 3.9 °F -16.1 °F -5.8 °F 64% 30.21 in 10.0 mi NW 18.4 mph 26.5 mph N/A   Scattered Clouds
7:15 AM 3.7 °F -14.6 °F -6.0 °F 64% 30.22 in 10.0 mi NW 15.0 mph - N/A   Scattered Clouds
7:35 AM 3.6 °F -16.0 °F -6.2 °F 64% 30.22 in 10.0 mi NNW 17.3 mph 20.7 mph N/A   Clear
7:55 AM 3.6 °F -16.6 °F -6.3 °F 64% 30.22 in 10.0 mi NNW 18.4 mph 24.2 mph N/A   Clear
8:15 AM 3.7 °F -17.9 °F -6.7 °F 62% 30.21 in 10.0 mi NW 21.9 mph - N/A   Clear
8:35 AM 3.9 °F -17.1 °F -6.7 °F 61% 30.22 in 10.0 mi NW 20.7 mph - N/A   Clear
8:55 AM 5.0 °F -15.2 °F -6.7 °F 59% 30.23 in 10.0 mi NNW 19.6 mph 25.3 mph N/A   Clear
9:15 AM 5.7 °F -15.3 °F -6.5 °F 57% 30.25 in 10.0 mi NNW 21.9 mph 27.6 mph N/A   Clear
9:35 AM 5.9 °F -15.0 °F -6.7 °F 56% 30.27 in 10.0 mi NW 21.9 mph - N/A   Clear
9:55 AM 7.2 °F -12.4 °F -6.2 °F 55% 30.27 in 10.0 mi NW 19.6 mph - N/A   Clear
10:15 AM 8.4 °F -10.8 °F -5.8 °F 52% 30.27 in 10.0 mi NNW 19.6 mph 28.8 mph N/A   Clear
10:35 AM 9.0 °F -9.0 °F -6.0 °F 51% 30.29 in 10.0 mi NNW 17.3 mph - N/A   Clear
10:55 AM 10.8 °F -6.2 °F -5.8 °F 47% 30.30 in 10.0 mi NW 16.1 mph 19.6 mph N/A   Clear
11:15 AM 11.1 °F -8.1 °F -6.0 °F 46% 30.29 in 10.0 mi NNW 21.9 mph 25.3 mph N/A   Clear
11:35 AM 10.9 °F -7.5 °F -6.5 °F 45% 30.28 in 10.0 mi NNW 19.6 mph 26.5 mph N/A   Clear
11:55 AM 12.0 °F -6.9 °F -6.3 °F 44% 30.27 in 10.0 mi NW 21.9 mph - N/A   Clear
12:15 PM 12.0 °F -4.5 °F -6.5 °F 43% 30.27 in 10.0 mi NNW 16.1 mph 25.3 mph N/A   Clear
12:35 PM 12.6 °F -4.9 °F -6.7 °F 42% 30.26 in 10.0 mi NW 18.4 mph 25.3 mph N/A   Clear
12:55 PM 13.1 °F -4.6 °F -7.1 °F 40% 30.25 in 10.0 mi NW 19.6 mph 25.3 mph N/A   Clear
1:15 PM 12.2 °F -6.7 °F -7.8 °F 41% 30.25 in 10.0 mi NW 21.9 mph - N/A   Clear
1:35 PM 13.8 °F -2.2 °F -7.1 °F 39% 30.24 in 10.0 mi NW 16.1 mph - N/A   Clear
1:55 PM 13.5 °F -2.7 °F -7.1 °F 40% 30.24 in 10.0 mi NW 16.1 mph 19.6 mph N/A   Clear
2:15 PM 12.7 °F -1.8 °F -7.8 °F 40% 30.24 in 10.0 mi NNW 12.7 mph 21.9 mph N/A   Clear
2:35 PM 12.6 °F -3.3 °F -8.1 °F 39% 30.24 in 10.0 mi NNW 15.0 mph 25.3 mph N/A   Clear
2:55 PM 12.0 °F -4.0 °F -7.8 °F 41% 30.25 in 10.0 mi NW 15.0 mph 20.7 mph N/A   Clear
3:15 PM 11.7 °F -6.5 °F -8.0 °F 41% 30.25 in 10.0 mi NW 19.6 mph - N/A   Clear
3:35 PM 11.3 °F -4.9 °F -8.3 °F 41% 30.25 in 10.0 mi NNW 15.0 mph - N/A   Clear
3:55 PM 11.3 °F -4.3 °F -8.0 °F 42% 30.27 in 10.0 mi NW 13.8 mph - N/A   Clear
4:15 PM - - - N/A% - - North - - N/A   Unknown
4:35 PM - - - N/A% - - North - - N/A   Unknown
4:55 PM 8.8 °F -7.5 °F -8.5 °F 46% 30.30 in 10.0 mi NW 13.8 mph - 0.03 in   Clear
5:15 PM 7.7 °F -7.4 °F -8.5 °F 48% 30.31 in 10.0 mi NW 11.5 mph - N/A   Clear
5:35 PM 6.4 °F -7.3 °F -8.3 °F 51% 30.32 in 10.0 mi NW 9.2 mph - N/A   Clear
5:55 PM 6.4 °F -8.2 °F -8.9 °F 50% 30.33 in 10.0 mi NNW 10.4 mph - N/A   Clear
6:15 PM 5.7 °F -6.1 °F -9.4 °F 50% 30.34 in 10.0 mi NW 6.9 mph - N/A   Clear
6:35 PM 3.0 °F -8.0 °F -9.4 °F 56% 30.35 in 10.0 mi NW 5.8 mph - N/A   Clear
6:55 PM 1.9 °F -7.6 °F -8.9 °F 61% 30.35 in 10.0 mi NW 4.6 mph - N/A   Clear
7:15 PM 3.2 °F - -8.3 °F 59% 30.35 in 10.0 mi Calm Calm - N/A   Clear
7:35 PM 2.5 °F -7.0 °F -8.1 °F 61% 30.34 in 10.0 mi NNW 4.6 mph - N/A   Clear
7:55 PM 1.9 °F -7.6 °F -8.0 °F 63% 30.34 in 10.0 mi NW 4.6 mph - N/A   Scattered Clouds
8:15 PM 0.5 °F -7.3 °F -8.0 °F 68% 30.35 in 10.0 mi North 3.5 mph - N/A   Scattered Clouds
8:35 PM 1.2 °F -8.5 °F -8.1 °F 65% 30.35 in 10.0 mi NNW 4.6 mph - N/A   Scattered Clouds
8:55 PM 0.5 °F - -8.1 °F 67% 30.36 in 10.0 mi Calm Calm - N/A   Mostly Cloudy
9:15 PM -0.0 °F - -8.1 °F 69% 30.37 in 10.0 mi Calm Calm - N/A   Overcast
9:35 PM 0.5 °F -7.3 °F -8.0 °F 68% 30.37 in 10.0 mi NW 3.5 mph - N/A   Mostly Cloudy
9:55 PM 1.2 °F -10.1 °F -7.1 °F 68% 30.38 in 10.0 mi NNW 5.8 mph - N/A   Mostly Cloudy
10:15 PM 2.8 °F -10.7 °F -6.7 °F 64% 30.37 in 10.0 mi NNW 8.1 mph - N/A   Overcast
10:35 PM 3.4 °F -12.9 °F -7.1 °F 62% 30.37 in 10.0 mi NNW 11.5 mph - N/A   Overcast
10:55 PM 3.6 °F -9.8 °F -7.8 °F 59% 30.39 in 10.0 mi NNW 8.1 mph - N/A   Overcast
11:15 PM 3.4 °F -14.4 °F -9.8 °F 54% 30.39 in 10.0 mi NNW 13.8 mph 19.6 mph N/A   Mostly Cloudy
11:35 PM 2.7 °F -15.3 °F -10.3 °F 55% 30.38 in 10.0 mi NNW 13.8 mph 19.6 mph N/A   Scattered Clouds
11:55 PM 2.1 °F -16.0 °F -10.3 °F 56% 30.39 in 10.0 mi NNW 13.8 mph 19.6 mph N/A   Mostly Cloudy